Hourly Data Report for September 24, 2017

All times are specified in Local Standard Time (LST). Add 1 hour to adjust for Daylight Saving Time where and when it is observed.

WOODSTOCK NEWBRIDGE
NEW BRUNSWICK

46°09'08.000" N
67°32'34.000" W
154.00 m
8105603
71606
EWD

Download Data

Hourly Data (September 2017)
Hourly Data Report for September 24, 2017
Temp Definition
°C
Dew Point Temp Definition
°C
Rel Hum Definition
%
Wind Dir Definition
10's deg

Wind Spd Definition
km/h
Visibility Definition
km
Stn Press Definition
kPa
Hmdx Definition


Wind Chill Definition


Weather Definition


TIME
00:00 14.5 13.7 95 0 1   99.89     LegendNANA
01:00 17.4 13.6 78 7 4   99.94     LegendNANA
02:00 15.2 12.2 82 7 1   99.96     LegendNANA
03:00 13.2 10.9 86   0   99.95     LegendNANA
04:00 11.4 10.1 92   0   99.95     LegendNANA
05:00 10.9 9.5 91   0   99.93     LegendNANA
06:00 11.0 9.5 91 9 1   99.95     LegendNANA
07:00 11.4 10.1 92   0   99.99     LegendNANA
08:00 15.6 10.1 70 13 7   99.93     LegendNANA
09:00 18.4 11.9 66 16 5   99.93     LegendNANA
10:00 21.1 13.5 62 16 7   99.89     LegendNANA
11:00 24.5 16.2 60 18 10   99.81 29   LegendNANA
12:00 26.8 17.8 58 25 10   99.77 33   LegendNANA
13:00 26.9 17.9 58 25 10   99.77 33   LegendNANA
14:00 28.1 18.8 57 25 10   99.71 35   LegendNANA
15:00 29.2 19.1 55 25 9   99.67 36   LegendNANA
16:00 28.9 18.4 53 24 7   99.66 35   LegendNANA
17:00 28.2 19.0 57 28 1   99.67 35   LegendNANA
18:00 25.7 18.9 66   0   99.71 32   LegendNANA
19:00 23.8 19.5 77   0   99.76 31   LegendNANA
20:00 21.5 20.6 94 3 3   99.81 30   LegendNANA
21:00 21.3 20.6 96 0 1   99.87 29   LegendNANA
22:00 21.1 19.9 93 36 2   99.93 29   LegendNANA
23:00 19.4 18.7 96   0   99.93     LegendNANA

Notes on Data Quality.

Legend

  • E = Estimated
  • M = Missing
  • NA = Not Available
  • ‡ = Partner data that is not subject to review by the National Climate Archives
Date modified: